This is the latest recevied weather packets stored in our database for station/object VK3XEM-13. If no packets are shown the sender has not sent any weather packets the latest 10 day(s).
| Time | Temp. | Humidity | Pressure | Rain* | Wind** | Luminosity | Snow |
|---|---|---|---|---|---|---|---|
| 1777837635 | 12.78° C | 80% | 1009.7 hPa | 0 mm | - | 0 W/m² | - |
| 1777836735 | 12.22° C | 81% | 1009.3 hPa | 0 mm | - | 0 W/m² | - |
| 1777835834 | 12.22° C | 82% | 1009.3 hPa | 0 mm | - | 0 W/m² | - |
| 1777834934 | 12.22° C | 82% | 1009.7 hPa | 0 mm | - | 0 W/m² | - |
| 1777834035 | 12.22° C | 82% | 1010 hPa | 0 mm | - | 0 W/m² | - |
| 1777833135 | 12.22° C | 83% | 1010 hPa | 0 mm | - | 0 W/m² | - |
| 1777832234 | 12.22° C | 84% | 1010 hPa | 0 mm | - | 0 W/m² | - |
| 1777831334 | 12.22° C | 84% | 1010 hPa | 0 mm | - | 0 W/m² | - |
| 1777830434 | 11.67° C | 87% | 1010.4 hPa | 0 mm | - | 0 W/m² | - |
| 1777829534 | 11.67° C | 88% | 1010.4 hPa | 0 mm | - | 0 W/m² | - |
| 1777828634 | 11.67° C | 88% | 1010.4 hPa | 0 mm | - | 0 W/m² | - |
| 1777827734 | 11.67° C | 87% | 1010.4 hPa | 0 mm | - | 0 W/m² | - |
| 1777826834 | 11.67° C | 88% | 1010.4 hPa | 0 mm | - | 0 W/m² | - |
| 1777825935 | 11.11° C | 89% | 1010.7 hPa | 0 mm | - | 0 W/m² | - |
| 1777825034 | 11.11° C | 89% | 1010.7 hPa | 0 mm | - | 0 W/m² | - |
| 1777824134 | 11.11° C | 88% | 1010.7 hPa | 0 mm | - | 0 W/m² | - |
| 1777823234 | 11.67° C | 88% | 1010.4 hPa | 0 mm | - | 0 W/m² | - |
| 1777822334 | 11.11° C | 89% | 1010.7 hPa | 0 mm | - | 0 W/m² | - |
| 1777821435 | 11.67° C | 88% | 1010.7 hPa | 0 mm | - | 0 W/m² | - |
| 1777820535 | 11.67° C | 89% | 1010.7 hPa | 0 mm | - | 0 W/m² | - |
| 1777819634 | 11.67° C | 87% | 1010.4 hPa | 0 mm | - | 0 W/m² | - |
| 1777818734 | 12.22° C | 85% | 1011 hPa | 0 mm | - | 0 W/m² | - |
| 1777817834 | 12.78° C | 83% | 1011 hPa | 0 mm | - | 0 W/m² | - |
| 1777816934 | 13.33° C | 82% | 1011 hPa | 0 mm | - | 0 W/m² | - |
| 1777816035 | 13.33° C | 81% | 1010.7 hPa | 0 mm | - | 0 W/m² | - |
* Rain latest hour (hover to see other rain measurements)
** Current wind speed in m/s (hover to see current wind gust speed)